map of SSA home
Great Circle Mapper logo
SSA - Airport
Location
City:  Salvador, Bahia, Brazil
Name:Deputado Luís Eduardo Magalhães International Airport
Old (Alt.):Dois de Julho International Airport
ICAO / IATA:SBSV / SSA

Details
Type:Airport (Aerodrome, Airfield)
Use:Public/Civil, Military, International (customs port of entry)
Latitude:12°54'40"S (-12.910993)
Longitude:38°19'52"W (-38.331043)
Datum:WGS 1984
Elevation:64 ft (20 m)
Variation:23.38°W (WMM2015 magnetic declination)
-0.02° annual change
Runways:2
Longest:9859 × 148 ft (3005 × 45 m), paved

Time
Time Zone:UTC-3
Local Time:

Weather
METAR:SBSV 242300Z 16005KT 9999 FEW017 27/23 Q1015
TAF:SBSV 241600Z 2418/2518 09007KT 8000 SCT015 TN25/2508Z TX30/2516Z PROB30 2420/2503 6000 SHRA BKN015
RMK PCH

Related Locations
Nearby:
Farthest:GUM: 12234 mi / 19690 km
Agana [Guam Intl (Antonio B. Won Pat Intl)], GU, US

Find:

   beyond  
but within

Other Information
Maps:
NOTAMs:
Links:
Sources:

  
flag of Brazil
flag of Bahia
  

Sectional Chart

Flight Planning
at skyvector.com

Satellite Image

Google Maps Satellite View

 

Copyright © 2004-2015 Karl L. Swartz. All rights reserved.
The Great Circle Mapper name and logo are trademarks of the Great Circle Mapper.
All other trademarks mentioned herein belong to their respective owners.
Please see credits for attibutions and further copyright information.

  Follow gcmap on Facebook Follow gcmap on Twitter Follow gcmap on Google+

hCard Microformat

Geo Microformat